Terug naar catalogus

KUIPER-00549

ActiefCommunicatieVLEO
NORAD 69616·PAYLOAD·🇺🇸 United States

Gelanceerd Jun 17, 2026 vanaf Guiana Space Centre

Loading…

Volgende Passages (komende 24 uur)

TLE

VersSource: CelesTrak SupGP

Epoch: Sep 14, 2026, 21:47 UTC

1 69616C 26140AA  26257.90806713 -.01155500  00000+0 -64740-1 0  2574
2 69616  51.8917 325.8874 0005227 228.9383  55.9906 15.14022730    19

Volg KUIPER-00549 in realtime met AllMySat

Download on the App Store